Home > Time Zones > World Clock > Weather > Peru > Cuzco > Past weeks

Flag for Peru Weather past 2 weeks in Cuzco, Cusco, Peru

Now
45 °F

Clear.


Feels Like: 45 °F
Forecast: 34 / 65 °F
Wind: No wind

Location: Cuzco Airport

Current Time: Jul 28, 2015 at 10:25:05 PM

Latest Report: Jul 28, 2015 at 10:00 PM


Visibility: N/A

Pressure: 30.51 "Hg (20.20 "Hg at 3379m altitude)

Humidity: 46%

Dew point: 25 °F

Location of CuzcoLocation

Historic Weather in Cuzco — Graph

°F

Cuzco temperature yesterday

Maximum temperature yesterday: 72 °F (at 1:00 PM)
Minimum temperature yesterday: 32 °F (at 4:00 AM)
Average temperature yesterday: 51 °F

Past Weeks' High & Low Weather Summary

 TemperatureHumidityPressure
High73 °F (Jul 23, 1:00 PM)87% (Jul 15, 6:00 AM)30.63 "Hg (Jul 15, 6:00 AM)
Low32 °F (Jul 20, 6:00 AM)7% (Jul 27, 2:00 PM)30.36 "Hg (Jul 22, 3:30 PM)
Average52 °F46%30.50 "Hg
* Reported Jul 13 9:00 PM — Jul 28 9:00 PM, Cuzco, Weather by CustomWeather, © 2015

Note: Actual official high and low records may vary slightly from our data, if they occured in-between our weather recording intervals... More about our weather records

Advertising

Cuzco weather history for previous 24 hours

 ConditionsComfort  
Time TempWeatherWind HumidityBarometerVisibility
9:00 PM
Tue, Jul 28
48 °FClear.No wind40%30.48 "HgN/A
8:00 PM52 °FClear.1 mph30%30.45 "HgN/A
7:00 PM57 °FClear.6 mph25%30.42 "HgN/A
6:00 PM61 °FClear.5 mph25%30.39 "HgN/A
5:00 PM66 °FClear.8 mph18%30.36 "HgN/A
4:00 PM72 °FPassing clouds.2 mph9%30.36 "HgN/A
3:20 PM72 °FPassing clouds.2 mph9%30.36 "HgN/A
3:00 PM70 °FPassing clouds.3 mph9%30.36 "HgN/A
2:30 PM70 °FPassing clouds.3 mph9%30.36 "HgN/A
2:00 PM72 °FPassing clouds.7 mph8%30.39 "HgN/A
1:30 PM72 °FPassing clouds.5 mph8%30.39 "HgN/A
1:00 PM70 °FPassing clouds.1 mph9%30.42 "HgN/A
12:30 PM70 °FPassing clouds.5 mph8%30.42 "HgN/A
12:00 PM68 °FScattered clouds.2 mph10%30.45 "HgN/A
11:00 AM63 °FScattered clouds.2 mph14%30.51 "HgN/A
10:25 AM61 °FScattered clouds.2 mph16%30.51 "Hg6 mi
10:00 AM57 °FScattered clouds.3 mph15%30.54 "Hg6 mi
9:00 AM52 °FPassing clouds.2 mph19%30.57 "HgN/A
8:00 AM43 °FPassing clouds.2 mph39%30.57 "HgN/A
7:30 AM39 °FPassing clouds.2 mph48%30.57 "HgN/A
7:00 AM34 °FPassing clouds.No wind56%30.54 "HgN/A
6:00 AM32 °FClear.No wind64%30.54 "HgN/A
5:00 AM32 °FClear.No wind55%30.51 "HgN/A
4:00 AM32 °FClear.1 mph55%30.48 "HgN/A
3:00 AM34 °FClear.No wind56%30.48 "HgN/A
2:00 AM36 °FClear.No wind52%30.48 "HgN/A
1:00 AM37 °FClear.No wind48%30.48 "HgN/A
12:00 AM39 °FClear.No wind45%30.51 "HgN/A
11:00 PM
Mon, Jul 27
41 °FClear.No wind49%30.51 "HgN/A
10:00 PM41 °FClear.6 mph53%30.51 "HgN/A
Weather by CustomWeather, © 2015

See weather overviewHow to use our weather pages